STARLINK-32604, 62070

Orbit data source: Space-Track

STARLINK-32604, 62070 is a payload satellite owned by SpaceX/Seattle (US) in LEO that was launched on Sun, 24 Nov 2024 UTC via an FALCON 9 launch vehicle from the Air Force Western Test Range (AFWTR). Payload-class satellites include a variety of spacecraft equipped with specific instruments for various scientific and technological missions. These include communications satellites like Starlink; space stations such as the ISS; scientific satellites like the Hubble; Earth observation satellites from companies like Planet Labs, Umbra, and HawkEye 360; GPS; miniature CubeSats for education and research; and military/defense satellites.

Loading next visibility...
Identifier
62070, 2024-217P
Orbit
LEO
Country
Flag of USUS
Related business
Manufacturer
SpaceX/Seattle
Mission
Operational Commercial Communications
Bus & Motor
STARLINK V2M, Unknown motor
Mass
730 kg wet, ~700 kg dry
Launch date (UTC)
2024-11-24 (1 year ago)
Launch vehicle
FALCON 9
Launch site
Air Force Western Test Range (AFWTR)
Object type
Payload
Rocket body
Debris
Shape & HBR
Box + 2 Pan, 17.7 m
Radar Cross Section
33.884 m², Large (>1 m²)

Expand to show TLE details & history
Last TLE update: 12 hours ago

TLE from 12 hours ago
0 STARLINK-32604
1 62070U 24217P   26095.18157418  .00039992  00000-0  13552-2 0  9998
2 62070  53.1604  71.1096 0001262 104.0955 256.0186 15.30197121 77478
Epoch: 2026-04-05T04:21Z
TLE epoch observation values (Epoch: 2026-04-05T04:21:28.009Z)
Latitude
-0.00001°
Longitude
172.25221°
Altitude
476.332 km
Speed
7.629 km/s
True Right ascension
04h 44m 26s
True Declination
0° 00' 00"
Sunlit
Object was in daylight at epoch
Visualization orbit readout
Latitude
Unknown
Longitude
Unknown
Altitude
Unknown
Speed
Unknown
Apparent Right ascension
Unknown
Apparent Declination
Unknown
Sunlit
N/A
Visualization observer readout
Local Sidereal Time
21:57:20
Azimuth
Unknown
Elevation
Unknown
Doppler factor
Unknown
Orbital elements
Apogee altitude
476.345 km
Perigee altitude
474.615 km
Semi-major axis
6,853.617 km
Eccentricity
0.00013
Inclination
53.1604°
RAAN
71.1096°
Arg. of periapsis
104.0955°
True anomaly
256.00457°
Mean anomaly
256.0186°
Eccentric anomaly
256.01158°
Mean motion
3.82528 °/min
Orbital period
94.11 mins
BSTAR
0.0013552
Loading maneuver chart data...
Computing Atmospheric mass density...
Loading historical data...
Loading historical data...
Loading historical data...
Loading historical data...
Loading historical data...
Loading historical data...
Loading historical data...

Documentation

Showing up to 5 results
|